SHT22A EGLL-EGJB

Flight info

Callsign SHT22A
Flight time 0h 34m
Altitude 20000
Route GASGU2J GASGU N866 SAM/N0385F200 N63 LELNA LELNA1V
Aircraft A319/M-SDE3FGIJ1KRWXY/LB1

Departure

Time 2026-04-26 00:24
Airport London Heathrow Airport (EGLL)

Arrival

Time 2026-04-26 00:58
Airport Guernsey Airport (EGJB)
Time Latitude Longitude Altitude Speed Heading
2026-04-26 00:00 51.47188 -0.48602 86 ft 0 kts 269°
2026-04-26 00:15 51.47188 -0.48578 89 ft 4 kts 269°
2026-04-26 00:15 51.47188 -0.48536 86 ft 3 kts 269°
2026-04-26 00:16 51.47189 -0.48502 86 ft 4 kts 249°
2026-04-26 00:16 51.47203 -0.48474 88 ft 4 kts 188°
2026-04-26 00:16 51.47225 -0.48473 86 ft 1 kts 179°
2026-04-26 00:16 51.47226 -0.48473 86 ft 0 kts 179°
2026-04-26 00:20 51.47219 -0.48473 89 ft 3 kts 179°
2026-04-26 00:20 51.47168 -0.48472 88 ft 10 kts 179°
2026-04-26 00:20 51.47090 -0.48471 87 ft 13 kts 179°
2026-04-26 00:21 51.46992 -0.48470 86 ft 15 kts 179°
2026-04-26 00:21 51.46882 -0.48469 88 ft 13 kts 180°
2026-04-26 00:21 51.46785 -0.48469 86 ft 15 kts 180°
2026-04-26 00:21 51.46675 -0.48469 86 ft 15 kts 179°
2026-04-26 00:22 51.46610 -0.48468 86 ft 4 kts 178°
2026-04-26 00:22 51.46600 -0.48467 86 ft 0 kts 179°
2026-04-26 00:22 51.46594 -0.48467 86 ft 5 kts 179°
2026-04-26 00:23 51.46514 -0.48466 87 ft 13 kts 180°
2026-04-26 00:23 51.46480 -0.48392 87 ft 16 kts 90°
2026-04-26 00:23 51.46481 -0.47871 87 ft 78 kts 89°
2026-04-26 00:23 51.46484 -0.46683 89 ft 134 kts 89°
2026-04-26 00:24 51.46492 -0.44996 418 ft 153 kts 89°
2026-04-26 00:24 51.46494 -0.43323 1136 ft 148 kts 90°
2026-04-26 00:24 51.46420 -0.41628 1557 ft 162 kts 109°
2026-04-26 00:24 51.45800 -0.39977 1868 ft 185 kts 125°
2026-04-26 00:25 51.45009 -0.38185 2215 ft 208 kts 125°
2026-04-26 00:25 51.44122 -0.36169 2625 ft 234 kts 124°
2026-04-26 00:25 51.42981 -0.34169 3299 ft 252 kts 143°
2026-04-26 00:25 51.41369 -0.32974 4232 ft 262 kts 166°
2026-04-26 00:26 51.39534 -0.32925 5208 ft 269 kts 191°
2026-04-26 00:26 51.37822 -0.34137 6169 ft 274 kts 217°
2026-04-26 00:26 51.36388 -0.36158 7157 ft 275 kts 223°
2026-04-26 00:26 51.34972 -0.38234 8103 ft 278 kts 223°
2026-04-26 00:27 51.33554 -0.40309 9008 ft 282 kts 223°
2026-04-26 00:27 51.32096 -0.42434 9900 ft 286 kts 223°
2026-04-26 00:27 51.30781 -0.44833 10713 ft 289 kts 238°
2026-04-26 00:27 51.29935 -0.47763 11501 ft 293 kts 253°
2026-04-26 00:28 51.29349 -0.51015 11795 ft 316 kts 255°
2026-04-26 00:28 51.28727 -0.54509 12118 ft 336 kts 254°
2026-04-26 00:28 51.28075 -0.58141 12759 ft 343 kts 254°
2026-04-26 00:28 51.27387 -0.61811 13490 ft 347 kts 253°
2026-04-26 00:29 51.26671 -0.65511 14205 ft 351 kts 253°
2026-04-26 00:29 51.25938 -0.69246 14853 ft 354 kts 253°
2026-04-26 00:29 51.25197 -0.73009 15513 ft 357 kts 253°
2026-04-26 00:29 51.24450 -0.76808 16178 ft 360 kts 253°
2026-04-26 00:30 51.23696 -0.80628 16845 ft 363 kts 253°
2026-04-26 00:30 51.22933 -0.84484 17493 ft 366 kts 254°
2026-04-26 00:30 51.22166 -0.88370 18147 ft 369 kts 254°
2026-04-26 00:30 51.21361 -0.92276 18771 ft 373 kts 250°
2026-04-26 00:31 51.20173 -0.95982 19321 ft 378 kts 239°
2026-04-26 00:31 51.18560 -0.99249 19904 ft 383 kts 228°
2026-04-26 00:31 51.16654 -1.02228 20163 ft 384 kts 226°
2026-04-26 00:31 51.14731 -1.05181 20241 ft 384 kts 226°
2026-04-26 00:32 51.12803 -1.08131 20250 ft 384 kts 226°
2026-04-26 00:32 51.10878 -1.11076 20252 ft 384 kts 226°
2026-04-26 00:32 51.07026 -1.16966 20271 ft 384 kts 226°
2026-04-26 00:33 51.05098 -1.19909 20272 ft 384 kts 226°
2026-04-26 00:33 51.03171 -1.22851 20273 ft 384 kts 226°
2026-04-26 00:33 51.01246 -1.25791 20274 ft 384 kts 226°
2026-04-26 00:33 50.99319 -1.28728 20274 ft 384 kts 226°
2026-04-26 00:34 50.97394 -1.31663 20274 ft 384 kts 226°
2026-04-26 00:34 50.95351 -1.34390 20273 ft 386 kts 217°
2026-04-26 00:34 50.93049 -1.36497 20273 ft 388 kts 208°
2026-04-26 00:34 50.90638 -1.38410 20273 ft 388 kts 208°
2026-04-26 00:35 50.88225 -1.40330 20272 ft 388 kts 208°
2026-04-26 00:35 50.85818 -1.42247 20267 ft 387 kts 208°
2026-04-26 00:35 50.83410 -1.44167 20270 ft 387 kts 208°
2026-04-26 00:35 50.81004 -1.46087 20271 ft 387 kts 208°
2026-04-26 00:36 50.78603 -1.48000 20271 ft 387 kts 208°
2026-04-26 00:36 50.76202 -1.49906 20268 ft 386 kts 208°
2026-04-26 00:36 50.73797 -1.51812 20259 ft 386 kts 208°
2026-04-26 00:36 50.71391 -1.53719 20259 ft 386 kts 208°
2026-04-26 00:37 50.68993 -1.55622 20263 ft 386 kts 208°
2026-04-26 00:37 50.66587 -1.57528 20262 ft 387 kts 208°
2026-04-26 00:37 50.64188 -1.59428 20263 ft 387 kts 208°
2026-04-26 00:37 50.61810 -1.61309 20259 ft 387 kts 208°
2026-04-26 00:38 50.59403 -1.63205 20257 ft 387 kts 208°
2026-04-26 00:38 50.56998 -1.65090 20258 ft 387 kts 208°
2026-04-26 00:38 50.54588 -1.66974 20258 ft 387 kts 208°
2026-04-26 00:38 50.52181 -1.68860 20257 ft 386 kts 208°
2026-04-26 00:39 50.49775 -1.70748 20259 ft 386 kts 208°
2026-04-26 00:39 50.47372 -1.72636 20256 ft 386 kts 208°
2026-04-26 00:39 50.44965 -1.74528 20255 ft 386 kts 208°
2026-04-26 00:39 50.42560 -1.76414 20254 ft 386 kts 208°
2026-04-26 00:40 50.40156 -1.78293 20246 ft 386 kts 208°
2026-04-26 00:40 50.37751 -1.80170 20247 ft 386 kts 208°
2026-04-26 00:40 50.35342 -1.82045 20247 ft 386 kts 208°
2026-04-26 00:40 50.32935 -1.83912 20248 ft 386 kts 208°
2026-04-26 00:41 50.30529 -1.85778 20247 ft 386 kts 208°
2026-04-26 00:41 50.28126 -1.87641 20255 ft 385 kts 208°
2026-04-26 00:41 50.25724 -1.89502 20259 ft 385 kts 208°
2026-04-26 00:41 50.23355 -1.91331 20036 ft 375 kts 208°
2026-04-26 00:42 50.21029 -1.93124 19793 ft 370 kts 208°
2026-04-26 00:42 50.18728 -1.94901 19554 ft 369 kts 208°
2026-04-26 00:42 50.16432 -1.96670 19311 ft 368 kts 208°
2026-04-26 00:42 50.14143 -1.98435 19070 ft 367 kts 208°
2026-04-26 00:43 50.11858 -2.00198 18830 ft 366 kts 208°
2026-04-26 00:43 50.09577 -2.01957 18611 ft 365 kts 208°
2026-04-26 00:43 50.07305 -2.03706 18347 ft 364 kts 208°
2026-04-26 00:43 50.05036 -2.05446 18076 ft 363 kts 207°
2026-04-26 00:44 50.02807 -2.07153 17818 ft 361 kts 207°
2026-04-26 00:44 50.00559 -2.08876 17550 ft 359 kts 208°
2026-04-26 00:44 49.98437 -2.10884 17286 ft 356 kts 218°
2026-04-26 00:44 49.96623 -2.13466 17015 ft 351 kts 229°
2026-04-26 00:45 49.95019 -2.16275 16589 ft 346 kts 229°
2026-04-26 00:45 49.93430 -2.19063 16114 ft 343 kts 229°
2026-04-26 00:45 49.91859 -2.21818 15645 ft 340 kts 229°
2026-04-26 00:45 49.90300 -2.24551 15175 ft 337 kts 229°
2026-04-26 00:46 49.88751 -2.27259 14712 ft 334 kts 228°
2026-04-26 00:46 49.87208 -2.29941 14239 ft 332 kts 228°
2026-04-26 00:46 49.85675 -2.32602 13747 ft 330 kts 228°
2026-04-26 00:46 49.84155 -2.35239 13274 ft 327 kts 228°
2026-04-26 00:47 49.82652 -2.37851 12885 ft 321 kts 228°
2026-04-26 00:47 49.81202 -2.40371 12731 ft 304 kts 228°
2026-04-26 00:47 49.79818 -2.42774 12167 ft 299 kts 228°
2026-04-26 00:47 49.78435 -2.45174 11557 ft 296 kts 228°
2026-04-26 00:48 49.77079 -2.47528 11128 ft 290 kts 228°
2026-04-26 00:48 49.75736 -2.49852 10717 ft 290 kts 227°
2026-04-26 00:48 49.74391 -2.52175 10436 ft 288 kts 227°
2026-04-26 00:48 49.73056 -2.54475 10287 ft 287 kts 227°
2026-04-26 00:49 49.71738 -2.56744 10160 ft 287 kts 227°
2026-04-26 00:49 49.70404 -2.59037 10020 ft 287 kts 227°
2026-04-26 00:49 49.69009 -2.61275 9479 ft 294 kts 224°
2026-04-26 00:49 49.67523 -2.63483 8873 ft 299 kts 223°
2026-04-26 00:50 49.65998 -2.65667 8305 ft 297 kts 223°
2026-04-26 00:50 49.64492 -2.67810 7747 ft 292 kts 223°
2026-04-26 00:50 49.63016 -2.69924 7197 ft 287 kts 223°
2026-04-26 00:50 49.61572 -2.72010 6699 ft 281 kts 224°
2026-04-26 00:51 49.60164 -2.74054 6251 ft 274 kts 224°
2026-04-26 00:51 49.58797 -2.76046 5853 ft 266 kts 224°
2026-04-26 00:51 49.57472 -2.77973 5499 ft 257 kts 224°
2026-04-26 00:51 49.56194 -2.79830 5198 ft 248 kts 224°
2026-04-26 00:52 49.54956 -2.81628 4962 ft 241 kts 225°
2026-04-26 00:52 49.53750 -2.83379 4708 ft 236 kts 224°
2026-04-26 00:52 49.52561 -2.85109 4451 ft 234 kts 224°
2026-04-26 00:52 49.51393 -2.86812 4194 ft 228 kts 224°
2026-04-26 00:53 49.50255 -2.88466 3947 ft 222 kts 222°
2026-04-26 00:53 49.48965 -2.89642 3780 ft 212 kts 197°
2026-04-26 00:53 49.47559 -2.90023 3687 ft 199 kts 187°
2026-04-26 00:53 49.46219 -2.90081 3699 ft 190 kts 172°
2026-04-26 00:54 49.44954 -2.89483 3683 ft 191 kts 153°
2026-04-26 00:54 49.43893 -2.88283 3603 ft 190 kts 134°
2026-04-26 00:54 49.43160 -2.86647 3473 ft 189 kts 115°
2026-04-26 00:54 49.42819 -2.84713 3276 ft 188 kts 95°
2026-04-26 00:55 49.42844 -2.82714 3042 ft 187 kts 87°
2026-04-26 00:55 49.42904 -2.80728 2783 ft 185 kts 88°
2026-04-26 00:55 49.42963 -2.78752 2530 ft 184 kts 88°
2026-04-26 00:55 49.43021 -2.76799 2288 ft 183 kts 88°
2026-04-26 00:56 49.43077 -2.74864 2049 ft 179 kts 87°
2026-04-26 00:56 49.43132 -2.72978 1802 ft 174 kts 87°
2026-04-26 00:56 49.43183 -2.71210 1580 ft 154 kts 88°
2026-04-26 00:56 49.43227 -2.69673 1378 ft 137 kts 88°
2026-04-26 00:57 49.43269 -2.68251 1205 ft 130 kts 88°
2026-04-26 00:57 49.43306 -2.66880 1031 ft 127 kts 87°
2026-04-26 00:57 49.43344 -2.65531 856 ft 125 kts 87°
2026-04-26 00:57 49.43385 -2.64202 695 ft 124 kts 88°
2026-04-26 00:58 49.43419 -2.62878 530 ft 124 kts 87°
2026-04-26 00:58 49.43459 -2.61582 374 ft 123 kts 87°
2026-04-26 00:58 49.43494 -2.60360 335 ft 92 kts 88°
2026-04-26 00:58 49.43506 -2.59837 345 ft 13 kts 86°
2026-04-26 00:59 49.43514 -2.59618 346 ft 24 kts 86°
2026-04-26 00:59 49.43522 -2.59356 349 ft 25 kts 88°
2026-04-26 00:59 49.43510 -2.59216 354 ft 11 kts 135°
2026-04-26 00:59 49.43428 -2.59193 345 ft 10 kts 177°
2026-04-26 01:00 49.43372 -2.59253 346 ft 12 kts 267°
2026-04-26 01:00 49.43370 -2.59392 345 ft 14 kts 268°
2026-04-26 01:00 49.43365 -2.59545 352 ft 15 kts 267°
2026-04-26 01:00 49.43363 -2.59658 344 ft 6 kts 269°
2026-04-26 01:01 49.43335 -2.59693 344 ft 7 kts 173°
2026-04-26 01:01 49.43288 -2.59689 344 ft 3 kts 176°
2026-04-26 01:01 49.43270 -2.59688 344 ft 2 kts 178°
2026-04-26 01:01 49.43259 -2.59687 344 ft 1 kts 178°